Weather History for Phoenix, AZ

Change the Weather History Date:

Tuesday, April 8, 2014

  Actual Average Record
Temperature  
Mean Temperature 78 °F 70 °F  
Max Temperature 94 °F 83 °F 104 °F (1989)
Min Temperature 62 °F 58 °F 39 °F (1929)
Degree Days  
Heating Degree Days 0 1  
Month to date heating degree days 5 8  
Since 1 July heating degree days 546 922  
Cooling Degree Days 13 6  
Month to date cooling degree days 34 45  
Year to date cooling degree days 233 149  
Growing Degree Days 28 (Base 50)    
Moisture  
Dew Point 22 °F    
Average Humidity 16    
Maximum Humidity 27    
Minimum Humidity 5    
Precipitation  
Precipitation 0.00 in 0.01 in 0.99 in (1926)
Month to date precipitation 0.00 0.13  
Year to date precipitation 0.99 2.95  
Snow  
Snow 0.00 in - - ()
Month to date snowfall 0.0  
Year to date snowfall 0.0  
Since 1 July snowfall 0.0  
Snow Depth 0.00 in    
Sea Level Pressure  
Sea Level Pressure 30.01 in    
Wind  
Wind Speed 5 mph (East)    
Max Wind Speed 12 mph    
Max Gust Speed 15 mph    
Visibility 10 miles    
Events      
T = Trace of Precipitation, MM = Missing Value Source: NWS Daily Summary

Daily Weather History Graph

Daily Weather History Graph

Search for Another Location

Airport:

Trip Planner

Search our weather history database for the weather conditions in past years. The results will help you decide how hot, cold, wet, or windy it might be!

Date:

Astronomy

Apr. 08, 2014 Rise Set
Actual Time 6:06 AM MST 6:53 PM MST
Civil Twilight 5:41 AM MST 7:18 PM MST
Nautical Twilight 5:11 AM MST 7:48 PM MST
Astronomical Twilight 4:40 AM MST 8:19 PM MST
Moon 1:07 PM MST (4/8) 2:04 AM MST (4/8)
Length of Visible Light 13h 37m
Length of Day
12h 47m
Waxing Gibbous, 63% of the Moon is Illuminated
Apr 8
Waxing Gibbous
Apr 15
Full
Apr 22
Last Quarter
Apr 28
New
May 6
First Quarter

Hourly Weather History & Observations

Time (MST) Temp. Dew Point Humidity Pressure Visibility Wind Dir Wind Speed Gust Speed Precip Events Conditions
12:51 AM 70.0 °F 30.0 °F 23% 30.02 in 10.0 mi ESE 5.8 mph - N/A   Clear
1:51 AM 69.1 °F 28.9 °F 22% 30.01 in 10.0 mi ESE 9.2 mph - N/A   Clear
2:51 AM 66.9 °F 30.9 °F 26% 30.01 in 10.0 mi East 6.9 mph - N/A   Clear
3:51 AM 64.9 °F 28.9 °F 26% 30.01 in 10.0 mi East 8.1 mph - N/A   Clear
4:51 AM 64.0 °F 28.0 °F 26% 30.03 in 10.0 mi East 5.8 mph - N/A   Clear
5:51 AM 63.0 °F 28.9 °F 28% 30.04 in 10.0 mi ESE 5.8 mph - N/A   Clear
6:51 AM 64.9 °F 28.9 °F 26% 30.06 in 10.0 mi ENE 4.6 mph - N/A   Clear
7:51 AM 68.0 °F 26.1 °F 21% 30.09 in 10.0 mi ENE 8.1 mph - N/A   Clear
8:51 AM 75.0 °F 26.1 °F 16% 30.09 in 10.0 mi East 8.1 mph - N/A   Clear
9:51 AM 80.1 °F 25.0 °F 13% 30.09 in 10.0 mi ESE 5.8 mph - N/A   Clear
10:51 AM 84.0 °F 21.0 °F 10% 30.09 in 10.0 mi Variable 3.5 mph - N/A   Clear
11:51 AM 86.0 °F 21.0 °F 9% 30.07 in 10.0 mi North 3.5 mph - N/A   Clear
12:51 PM 89.1 °F 19.9 °F 8% 30.04 in 10.0 mi Calm Calm - N/A   Clear
1:51 PM 91.0 °F 18.0 °F 7% 30.01 in 10.0 mi Variable 3.5 mph - N/A   Clear
2:51 PM 91.9 °F 15.1 °F 6% 29.98 in 10.0 mi NNE 3.5 mph - N/A   Clear
3:51 PM 93.0 °F 14.0 °F 5% 29.96 in 10.0 mi Calm Calm - N/A   Clear
4:51 PM 93.9 °F 14.0 °F 5% 29.95 in 10.0 mi Variable 5.8 mph - N/A   Clear
5:51 PM 91.9 °F 12.9 °F 5% 29.94 in 10.0 mi WSW 3.5 mph - N/A   Clear
6:51 PM 91.0 °F 10.9 °F 5% 29.94 in 10.0 mi WNW 5.8 mph - N/A   Scattered Clouds
7:51 PM 84.9 °F 18.0 °F 8% 29.95 in 10.0 mi SW 4.6 mph - N/A   Scattered Clouds
8:51 PM 82.0 °F 19.9 °F 10% 29.95 in 10.0 mi SW 5.8 mph - N/A   Clear
9:51 PM 81.0 °F 19.9 °F 10% 29.95 in 10.0 mi Calm Calm - N/A   Clear
10:51 PM 77.0 °F 23.0 °F 13% 29.95 in 10.0 mi SE 3.5 mph - N/A   Partly Cloudy
11:51 PM 73.9 °F 30.9 °F 21% 29.95 in 10.0 mi East 5.8 mph - N/A   Partly Cloudy